Home > Weather > Samsun > Past weeks

Flag for Turkey Past Weather in Samsun, Turkey — Yesterday and Last 2 Weeks

Now
82 °F

Passing clouds.


Feels Like: 87 °F
Forecast: 67 / 84 °F
Wind: 8 mph from Northwest

Location: Samsun / Carsamba

Current Time: Jun 27, 2016 at 4:16:48 PM

Latest Report: Jun 27, 2016 at 3:50 PM


Visibility: N/A

Pressure: 29.71 "Hg

Humidity: 70%

Dew Point: 72 °F

Location of SamsunLocation

Past Weather in Samsun — Graph

°F

Samsun Temperature Yesterday

Maximum temperature yesterday: 84 °F (at 9:50 AM)
Minimum temperature yesterday: 66 °F (at 4:50 AM)
Average temperature yesterday: 77 °F

High & Low Weather Summary for the Past Weeks

 TemperatureHumidityPressure
High84 °F (Jun 13, 12:50 PM)94% (Jun 12, 10:50 PM)30.09 "Hg (Jun 12, 10:50 PM)
Low57 °F (Jun 13, 2:50 AM)42% (Jun 16, 2:50 PM)29.56 "Hg (Jun 14, 3:50 AM)
Average73 °F78%29.91 "Hg
* Reported Jun 12 2:50 PM — Jun 27 2:50 PM, Samsun, Weather by CustomWeather, © 2016

Note: Actual official high and low records may vary slightly from our data, if they occured in-between our weather recording intervals... More about our weather records

Advertising

Samsun Weather History for the Previous 24 Hours

Scroll right to see more
 ConditionsComfort  
Time TempWeatherWind HumidityBarometerVisibility
2:50 PM
Mon, Jun 27
81 °FPassing clouds.8 mph74%29.71 "HgN/A
1:50 PM82 °FPassing clouds.8 mph66%29.74 "HgN/A
12:50 PM81 °FScattered clouds.8 mph70%29.74 "HgN/A
11:50 AM82 °FScattered clouds.8 mph66%29.74 "HgN/A
10:50 AM82 °FScattered clouds.6 mph66%29.74 "HgN/A
9:50 AM81 °FScattered clouds.6 mph74%29.74 "HgN/A
8:50 AM79 °FScattered clouds.6 mph79%29.74 "HgN/A
7:50 AM77 °FPassing clouds.3 mph79%29.74 "HgN/A
6:50 AM72 °FPassing clouds.2 mph88%29.74 "HgN/A
5:50 AM68 °FPassing clouds.1 mph94%29.74 "HgN/A
4:50 AM66 °FPassing clouds.3 mph94%29.77 "HgN/A
3:50 AM66 °FClear.2 mph94%29.77 "Hg10 mi
2:50 AM68 °FClear.No wind94%29.77 "Hg10 mi
1:50 AM68 °FClear.2 mph94%29.77 "Hg10 mi
12:50 AM70 °FClear.No wind94%29.77 "Hg10 mi
11:50 PM
Sun, Jun 26
72 °FClear.1 mph94%29.80 "Hg10 mi
10:50 PM72 °FClear.No wind94%29.80 "Hg10 mi
9:50 PM73 °FClear.2 mph89%29.80 "Hg10 mi
8:50 PM75 °FSunny.3 mph83%29.80 "Hg10 mi
7:50 PM79 °FPassing clouds.6 mph70%29.80 "HgN/A
6:50 PM82 °FPassing clouds.7 mph66%29.80 "HgN/A
5:50 PM84 °FPassing clouds.6 mph58%29.80 "HgN/A
4:50 PM84 °FScattered clouds.6 mph62%29.83 "HgN/A
Weather by CustomWeather, © 2016

See weather overviewHow to use our weather pages